Георгиевка

Kazakhstan     42˚10′58″N   70˚00′00″E
temp.,
°C
wind,
m/s
gust,
m/s
humid.,
%
clouds,
%
prec.,
mm/h
press.,
hPa
HPBL,
m
3 december, thu
thu323:00se018371 0.0 102822
02:00−1˚ese11793 0.0 102822
05:00−2˚ese11802 0.0 102922
08:00−2˚e117821 0.0 102922
11:00+1˚w119612 0.0 102926
14:00+1˚wnw111007 0.0 102839
17:00nw119849 0.0 102929
20:00−1˚sw009599 0.0 102921
4 december, fri
fri423:00−1˚w119699 0.0 102921
02:00−2˚wnw0195100 0.0 102925
05:00−3˚w119486 0.0 103045
08:00−3˚w119685 0.1 103047
11:00−2˚wnw239892 0.1 1030183
14:00−3˚wnw3498100 0.1 1029228
17:00−5˚w1295100 0.2 103092
20:00−8˚wsw119075 0.0 103122
5 december, sat
sat523:00−8˚sw128539 0.0 103122
02:00−9˚sw11830 0.0 103121
05:00−10˚sw11860 0.0 103221
08:00−10˚ssw11790 0.0 103221
11:00−7˚w23830 0.0 1031184
14:00−6˚nw12840 0.0 1030203
17:00−10˚e11800 0.0 103121
20:00−9˚ese11610 0.0 103221
6 december, sun
sun623:00−8˚ese11470 0.0 103221
02:00−8˚ese12440 0.0 103221
05:00−7˚ese224322 0.0 103121
08:00−6˚se114578 0.0 103121
11:00−2˚n016874 0.0 103030
14:00−1˚ne12718 0.0 102933
17:00−5˚ene12614 0.0 102821
20:00−4˚ese11600 0.0 102721
7 december, mon
mon723:00−4˚sse116017 0.0 102621
02:00−4˚sse1161100 0.0 102621
05:00−3˚ese1163100 0.0 102521
08:00−3˚w1179100 0.4 102722
11:00−2˚w2398100 2.8 1028195
14:00−4˚wnw2398100 2.6 1028214
17:00−6˚wnw1198100 3.4 103036
20:00−6˚wnw129790 0.1 103284